FALCON 9 DEB (48489 NORAD) Tracking and Keplerian Element Data

This shows tracking and keplerian element data for the satellite.

Feedback or suggestion? Click here.




ElementValue
Catalog48489
NameFALCON 9 DEB
Epoch Orbit526
Epoch Day161.89076758
Epoch Year2021
RAAN53.6943
Inclination53.0415
Eccentricity0.0011354
Argument of Perigee267.408
Mean Anonmoly92.5669
Mean Motion16.44956686
Decay Rate0.07974521
L11 48489U 21040BP 21161.89076758 .07974521 12490-4 20278-3 0 9998
L22 48489 53.0415 53.6943 0011354 267.4080 92.5669 16.44956686 5269

Live tracking and technical data element details for FALCON 9 DEB (NORAD 48489). FALCON 9 DEB can be tracked NOW for your location showing map with azimuth and elevation plus other details from your city location.

Track the satellite on the map from your city or location and see movement details for azimuth, elevation, latitude, longitude, range, height, and movement on the map or in text.







IsCatalogInMostPopularTable: catalog: 48489, numindb: 27
Update: records affected: 1



GetName: 48489 FALCON 9 DEB

Hit Count: updated at: Tue, 03 Aug 2021 19:50:12 GMT